Reflectivity
-20 -20 -20 -20 -20 -20 -20 -20 -20 -20 -20 -20 -20 -20 -20 -20 -20 -20 -20 -20 -20 -20 -20 -20 -20 -20 -20 -20 -20 -20 -20 -20 -20 -20 -20 -20 -20 -20 -20 -20 -20 -20 -20 -20
-20 -20 -20 -20 -20 -20 -20 -20 -20 -20 -20 -20 -20 -20 -20 -20 -20 -20 -20 -20 -20 -20 -20 -20 -20 -20 -20 -20 -20 -20 -20 -20 -20 -20 -20 -20 -20 -20 -20 -20 -20 -20 -20 -20
-20 -20 -20 -20 -20 -20 -20 -20 -20 -20 -20 -20 -20 -20 -20 -20 -20 -20 -20 -20 -20 -20 -20 -20 -20 -20 -20 -20 -20 -20 -20 -20 -20 -20 -20 -20 -20 -20 -20 -20 -20 -20 -20 -20
-20 -20 -20 -20 -20 -20 -20 -20 -20 -20 -20 -20 -20 -20 -20 -20 -20 -20 -20 -20 -20 -20 -20 -20 -20 -20 -20 -20 -20 -20 -20 -20 -20 -20 -20 -20 -20 -20 -20 -20 -20 -20 -20 -20
-20 -20 -20 -20 -20 -20 -20 -20 -20 -20 -20 -20 -20 -20 -20 -20 -20 -20 -20 -20 -20 -20 -20 -20 -20 -20 -20 -20 -20 -20 -20 -20 -20 -20 -20 -20 -20 -20 -20 -20 -20 -20 -20 -20
-20 -20 -20 -20 -20 -20 -20 -20 -20 -20 -20 -20 -20 -20 -20 -20 -20 -20 -20 -20 -20 -20 -20 -20 -20 -20 -20 -20 -20 -20 -20 -20 -20 -20 -20 -20 -20 -20 -20 -20 -20 -20 -20 -20
-20 -20 -20 -20 -20 -20 -20 -20 -20 -20 -20 -20 -20 -20 -20 -20 -20 -20 -20 -20 -20 -20 -20 -20 -20 -20 -20 -20 -20 -20 -20 -20 -20 -20 -20 -20 -20 -20 -20 -20 -20 -20 -20 -20
-20 -20 -20 -20 -20 -20 -20 -20 -20 -20 -20 -20 -20 -20 -20 -20 -20 -20 -20 -20 -20 -20 -20 -20 -20 -20 -20 -20 -20 -20 -20 -20 -20 -20 -20 -20 -20 -20 -20 -20 -20 -20 -20 -20
-20 -20 -20 -20 -20 -20 -20 -20 -20 -20 -20 -20 -20 -20 -20 -20 -20 -20 -20 -20 -20 -20 -20 -20 -20 -20 -20 -20 -20 -20 -20 -20 -20 -20 -20 -20 -20 -20 -20 -20 -20 -20 -20 -20
-20 -20 -20 -20 -20 -20 -20 -20 -20 -20 -20 -20 -20 -20 -20 -20 -20 -20 -20 -20 -20 -20 -20 -20 -20 -20 -20 -20 -20 -20 -20 -20 -20 -20 -20 -20 -20 -20 -20 -20 -20 -20 -20 -20
-20 -20 -20 -20 -20 -20 -20 -20 -20 -20 -20 -20 -20 -20 -20 -20 -20 -20 -20 -20 -20 -20 -20 -20 -20 -20 -20 -20 -20 -20 -20 -20 -20 -20 -20 -20 -20 -20 -20 -20 -20 -20 -20 -20
-20 -20 -20 -20 -20 -20 -20 -20 -20 -20 -20 -20 -20 -20 -20 -20 -20 -20 -20 -20 -20 -20 -20 -20 -20 -20 -20 -20 -20 -20 -20 -20 -20 -20 -20 -20 -20 -20 -20 -20 -20 -20 -20 -20
-20 -20 -20 -20 -20 -20 -20 -20 -20 -20 -20 -20 -20 -20 -20 -20 -20 -20 -20 -20 -20 -20 -20 -20 -20 -20 -20 -20 -20 -20 -20 -20 -20 -20 -20 -20 -20 -20 -20 -20 -20 -20 -20 -20
-20 -20 -20 -20 -20 -20 -20 -20 -20 -20 -20 -20 -20 -20 -20 -20 -20 -20 -20 -20 -20 -20 -20 -20 -20 -20 -20 -20 -20 -20 -20 -20 -20 -20 -20 -20 -20 -20 -20 -20 -20 -20 -20 -20
-20 -20 -20 -20 -20 -20 -20 -20 -20 -20 -20 -20 -20 -20 -20 -20 -20 -20 -20 -20 -20 -20 -20 -20 -20 -20 -20 -20 -20 -20 -20 -20 -20 -20 -20 -20 -20 -20 -20 -20 -20 -20 -20 -20
-20 -20 -20 -20 -20 -20 -20 -20 -20 -20 -20 -20 -20 -20 -20 -20 -20 -20 -20 -20 -20 -20 -20 -20 -20 -20 -20 -20 -20 -20 -20 -20 -20 -20 -20 -20 -20 -20 -20 -20 -20 -20 -20 -20
-20 -20 -20 -20 -20 -20 -20 -20 -20 -20 -20 -20 -20 -20 -20 -20 -20 -20 -20 -20 -20 -20 -20 -20 -20 -20 -20 -20 -20 -20 -20 -20 -20 -20 -20 -20 -20 -20 -20 -20 -20 -20 -20 -20
-20 -20 -20 -20 -20 -20 -20 -20 -20 -20 -20 -20 -20 -20 -20 -20 -20 -20 -20 -20 -20 -20 -20 -20 -20 -20 -20 -20 -20 -20 -20 -20 -20 -20 -20 -20 -20 -20 -20 -20 -20 -20 -20 -20
-20 -20 -20 -20 -20 -20 -20 -20 -20 -20 -20 -20 -20 -20 -20 -20 -20 -20 -20 -20 -20 -20 -20 -20 -20 -20 -20 -20 -20 -20 -20 -20 -20 -20 -20 -20 -20 -20 -20 -20 -20 -20 -20 -20
5 -14 -20 -20 -20 -20 -20 -20 -20 -20 -20 -20 -20 -20 -20 -20 -20 -20 -20 -20 -20 -20 -20 -20 -20 -20 -20 -20 -20 -20 -20 -20 -20 -20 -7 -20 -20 -20 -20 -20 -20 -20 -20 -20
-5 13 14 -20 -20 -20 -20 -20 -20 -20 -20 -20 -20 -20 -20 -20 -20 -20 -20 -20 -20 -20 -20 -20 -20 -20 -20 -20 -20 -20 -20 -20 -20 -20 14 -17 8 -20 -20 -20 -20 -20 -20 -20
13 0 19 -4 -20 -20 -20 -20 -20 -20 -20 -20 -20 -20 -20 -20 -20 -20 -20 -20 -20 -20 -20 -20 -20 -20 -20 -20 -20 -20 -20 -20 -20 -8 -16 12 -13 -20 6 -16 -20 -20 -20 -20
5 -17 -3 11 -20 -20 -20 -19 -20 -20 -20 -20 -20 -20 -20 -20 -20 -20 -20 -20 -20 -20 -20 -20 -20 -20 -20 -20 -20 -20 -20 -14 11 8 13 -9 16 -20 -15 2 0 -18 -20 10
-20 30 -6 8 -4 -20 -11 -14 -2 0 -20 -20 -20 -20 -20 -20 -20 -20 -20 -20 -20 -20 -20 -20 -20 -20 -20 -20 -20 -20 -20 -20 -20 -20 -20 -20 -20 -19 18 3 14 0 -18 -19
-20 30 6 24 9 -19 -15 1 21 7 -20 -20 -20 -20 -20 -20 -20 -20 -20 -20 -20 -20 -20 -20 -20 -20 -20 -20 -20 -20 -20 -20 -20 -20 -20 -20 -20 -15 -5 -9 -19 -17 -20 -9
15 30 -6 -20 -0 -11 -10 10 -4 -6 26 -17 -20 -12 -20 -20 -20 -20 -20 -20 -20 -20 -20 -20 -20 -20 -20 -20 -20 -20 -20 -20 -20 -20 -20 -20 -20 -20 -20 -20 6 24 31 37
Wind_Speed
7 6 9 9 6 5 3 3 5 6 3 2 9 8 21 24 17 19 19 20 20 22 22 18 18 17 15 15 16 17 16 14 11 7 6 4 6 3 2 3 6 6 6 7
3 15 9 8 8 8 7 7 12 15 9 8 7 11 23 25 28 28 24 23 23 21 19 20 18 18 19 19 19 18 18 15 14 10 9 6 4 3 3 4 5 5 6 7
11 7 10 9 7 8 6 10 11 10 4 2 4 3 12 21 10 14 18 22 23 23 24 22 22 22 19 20 21 20 21 19 15 15 8 2 3 2 3 2 3 5 6 6
7 10 10 9 8 10 9 7 9 5 4 4 3 5 5 14 20 17 18 21 21 23 21 20 23 21 22 23 21 20 19 18 16 15 13 15 9 9 5 5 4 6 8 8
10 13 16 11 17 8 11 4 8 3 5 0 5 1 8 16 17 18 21 22 22 23 23 23 24 25 23 21 21 20 20 19 18 16 16 12 10 7 3 3 6 6 6 7
13 5 14 11 9 13 4 2 5 3 3 6 17 9 11 8 19 21 20 23 25 24 23 23 23 21 20 18 18 19 20 20 19 18 19 17 16 9 6 4 6 5 4 5
6 20 5 6 8 6 6 8 3 4 5 11 9 6 14 9 19 28 27 27 28 25 24 24 22 22 20 21 21 18 19 20 20 20 19 18 16 14 13 10 7 6 4 4
9 7 15 6 11 12 8 12 8 9 5 8 6 10 9 17 12 21 26 26 22 23 23 25 26 24 24 24 22 21 21 20 20 20 20 17 16 11 10 10 8 7 7 7
10 11 4 15 7 16 8 11 13 2 3 2 6 8 5 8 10 10 17 19 22 22 24 27 26 23 24 22 24 24 23 23 22 22 18 16 15 15 12 11 11 8 8 6
8 3 7 11 8 9 16 10 4 2 12 14 6 7 7 6 12 9 11 13 17 19 21 23 22 24 22 23 23 23 24 26 24 23 20 16 16 15 12 11 12 10 9 8
3 4 7 6 9 16 4 13 4 7 8 10 9 11 9 11 10 12 12 14 17 16 20 22 21 22 22 19 20 22 21 23 22 20 18 17 16 15 13 13 12 13 11 11
6 3 14 17 8 19 19 16 9 7 13 6 7 13 4 16 15 11 11 11 14 21 24 21 23 20 19 20 19 22 22 22 23 20 19 19 17 16 15 15 14 13 13 12
8 4 2 6 4 3 11 12 14 10 4 21 9 7 6 8 8 9 10 9 12 11 15 15 14 13 18 19 20 21 22 24 21 19 20 18 18 17 18 17 15 13 14 12
2 3 4 5 5 4 7 11 20 17 11 16 20 8 5 8 10 10 9 9 10 9 14 14 11 12 15 17 19 20 22 21 20 20 20 19 19 19 19 18 16 15 14 13
5 3 3 5 13 14 15 13 25 20 22 16 17 13 14 11 12 11 11 5 7 9 10 13 14 15 18 19 19 18 18 18 20 20 20 21 18 17 16 17 16 15 14 13
3 4 6 6 9 10 15 20 26 24 23 18 17 8 10 14 9 6 11 10 10 9 9 9 20 19 19 23 23 21 20 20 20 20 22 20 19 18 18 17 16 15 13 13
2 1 6 6 8 11 13 24 20 23 14 18 19 9 9 10 11 12 13 11 11 11 11 14 15 14 18 19 20 21 22 19 21 21 19 19 18 18 18 17 15 16 16 14
3 4 1 6 6 10 10 9 17 18 8 9 5 10 13 16 18 15 12 11 11 10 10 10 12 13 15 17 21 20 17 19 21 21 19 18 20 20 17 17 18 16 14 17
17 5 3 4 4 10 12 5 10 14 15 7 12 10 8 9 2 6 7 7 10 9 11 11 13 12 12 17 17 16 16 18 18 19 19 19 20 19 18 19 19 15 14 13
17 17 6 3 5 7 0 18 21 14 18 9 10 11 11 9 7 12 4 6 11 9 4 6 10 7 9 11 13 16 17 18 20 19 21 21 20 19 20 19 19 16 15 14
7 8 14 12 5 10 9 25 12 5 9 7 8 7 9 8 7 3 2 4 7 5 9 8 8 3 6 7 11 12 13 18 20 19 20 18 18 20 20 17 15 16 16 14
10 10 7 8 8 9 13 11 10 11 16 7 6 4 7 6 6 8 11 11 12 13 13 11 12 10 8 6 2 9 16 20 17 15 14 15 17 15 13 17 14 15 15 15
6 8 10 7 6 3 1 7 14 10 6 9 4 5 6 8 8 7 7 9 9 9 8 7 9 7 8 10 6 6 15 13 15 14 16 16 15 14 14 16 16 13 14 12
6 5 8 4 6 3 8 10 14 13 8 9 8 8 11 13 8 9 9 9 10 10 10 6 9 9 6 5 7 8 11 9 8 13 17 16 17 17 18 14 13 13 12 11
6 6 13 5 5 1 9 8 13 11 9 9 11 10 12 11 8 6 7 8 6 5 5 6 8 8 9 8 7 4 5 13 9 10 7 7 9 15 13 7 7 11 6 10
7 7 7 8 4 2 6 7 12 4 6 10 10 12 11 10 8 7 9 5 4 6 5 5 6 6 7 8 10 7 2 3 11 5 7 9 11 9 9 12 12 17 8 13
Wind_Direction
173 180 207 206 186 198 184 250 254 252 261 94 226 173 179 185 193 186 188 190 195 203 203 201 199 195 186 189 187 186 189 191 184 188 192 199 197 184 208 209 200 189 177 185
155 219 195 197 189 208 220 229 259 296 175 183 203 213 194 182 198 191 186 193 199 206 198 204 200 199 196 188 190 189 191 189 192 191 197 198 172 197 166 182 195 190 195 184
205 226 167 178 191 189 219 207 241 232 359 324 101 337 164 208 214 199 204 200 200 200 197 203 200 198 197 196 193 193 191 191 192 195 187 115 98 74 142 175 186 195 201 206
221 230 188 195 209 181 235 199 251 265 56 245 132 270 203 188 214 203 207 207 204 207 203 199 206 200 194 197 195 196 192 190 193 189 193 199 196 199 206 178 167 187 202 204
224 186 201 209 214 160 243 198 224 183 203 114 229 235 253 172 208 218 209 212 210 208 203 199 200 203 203 190 193 194 193 191 189 191 198 197 199 198 171 162 175 189 200 202
212 217 191 196 196 200 166 283 340 49 142 245 248 166 254 180 203 211 214 212 211 208 206 210 205 200 201 196 194 191 188 195 191 192 199 198 198 180 166 180 200 204 193 202
174 230 202 148 174 193 127 115 273 295 194 240 205 202 228 215 207 204 204 210 210 206 204 208 205 203 198 194 192 190 190 194 195 195 198 198 198 189 188 191 197 187 188 192
179 238 199 170 183 191 192 180 166 198 192 243 170 221 239 213 215 214 212 213 208 205 206 207 207 202 202 194 189 187 188 195 194 195 199 199 197 192 196 194 193 199 197 203
179 237 200 195 180 174 192 193 204 142 206 22 228 275 286 202 238 206 215 218 209 206 207 210 208 204 202 198 189 189 189 195 195 196 195 195 195 194 193 193 197 196 195 197
212 225 214 205 180 217 193 165 187 350 221 244 248 238 228 193 228 237 223 201 209 212 210 212 208 205 203 199 195 189 192 195 195 194 194 193 192 196 191 189 197 193 194 192
276 244 229 151 186 197 192 211 185 157 177 224 246 258 179 204 214 202 223 212 213 213 219 214 208 207 201 195 190 193 198 196 201 197 195 194 195 194 192 195 199 195 189 190
333 274 241 221 220 206 206 210 165 189 226 261 240 235 308 190 203 202 224 210 221 222 221 212 207 196 190 192 188 193 194 196 199 195 195 194 195 190 192 202 202 193 189 186
340 309 270 313 310 313 216 194 194 217 152 230 221 240 228 172 206 217 224 240 249 228 217 208 199 187 189 190 190 191 194 200 197 192 194 195 195 191 195 203 202 196 193 187
46 283 218 260 271 325 208 228 210 203 223 233 232 236 231 225 215 235 213 232 243 219 194 189 166 182 189 192 195 194 199 196 192 193 194 196 197 196 196 201 201 200 194 186
76 269 269 301 293 281 263 258 225 215 219 211 232 209 231 222 202 213 227 207 220 220 202 189 184 184 187 190 194 197 201 195 194 192 195 199 197 198 198 202 201 201 194 193
17 281 350 284 264 290 273 257 251 224 217 227 235 215 204 227 227 234 224 232 210 212 203 228 216 206 193 191 189 191 194 194 190 195 201 194 192 194 196 201 200 195 193 191
278 113 5 286 310 320 276 237 250 243 215 190 218 191 193 239 232 226 233 224 225 225 212 203 202 225 189 192 193 192 191 185 191 198 197 195 193 196 197 197 195 197 191 182
239 139 165 259 316 233 268 315 236 232 213 207 167 198 193 205 231 226 217 201 224 224 222 216 217 200 200 198 194 192 185 187 192 197 197 195 194 198 190 193 201 197 189 187
203 202 216 233 234 292 298 6 342 200 229 206 201 205 204 214 93 273 230 218 219 223 209 208 203 197 203 191 193 189 183 186 193 198 197 197 198 197 191 193 196 196 191 188
195 204 216 185 240 239 169 330 328 315 228 194 181 203 195 140 204 243 215 208 227 230 235 252 192 186 166 214 187 181 188 186 195 197 201 198 198 196 196 193 191 191 194 193
181 176 220 234 253 281 342 334 311 140 247 156 148 160 147 176 202 204 128 27 17 27 4 357 360 304 211 169 161 193 189 202 206 203 203 199 199 198 197 191 188 186 187 183
194 162 185 222 220 254 6 349 358 309 300 299 101 86 105 98 68 52 57 51 42 48 42 39 58 39 14 5 302 219 197 209 205 200 198 203 199 195 187 185 183 182 182 189
251 191 176 212 224 166 31 347 318 298 300 315 354 96 106 97 59 48 61 64 57 60 65 72 89 85 36 24 1 243 233 233 218 196 199 188 193 189 178 177 178 177 179 183
279 177 195 129 242 217 41 353 334 338 352 335 6 62 61 86 63 59 46 40 39 32 33 23 36 35 62 103 65 19 352 290 222 225 211 194 186 189 170 174 177 174 177 178
264 252 217 211 254 120 59 0 323 322 346 17 35 44 74 86 68 74 59 41 34 43 29 26 33 9 352 356 8 7 6 8 275 211 193 183 184 166 152 119 173 174 149 169
240 231 210 223 235 168 90 357 315 14 344 29 51 43 36 62 65 64 60 46 45 33 14 37 42 22 325 324 323 303 284 87 340 213 170 175 163 140 134 127 105 59 71 123